sat.trackr.live / text

‹ back to catalog

CENTISPACE-1 S14

NORAD 62583 · 2025-007J

PAYLOAD ACTIVE UNKNOWN

§ Identity

Operator
Country
PRC
Launch date
2025-01-13
Launch site
YSLA
Launch vehicle
Mass (kg)
RCS (m²)

External: N2YO · Heavens-Above · Gunter

§ Orbital elements

Epoch: 2026-09-22T19:20:40.078752Z

Period
104.30 min
Inclination
54.9850°
Eccentricity
0.0009264
Mean motion
13.80624080 rev/d
Perigee alt
954.9 km
Apogee alt
968.5 km
Semi-major
7,339.8 km
B*
6.4492e-5
RAAN
311.2345°
Arg perigee
287.3181°
Mean anomaly
72.6762°
Rev number
8,819

§ Raw data

CENTISPACE-1 S141 62583U 25007J   26265.80601943 -.00000072  00000+0  64492-4 0  99982 62583  54.9850 311.2345 0009264 287.3181  72.6762 13.80624080 88195

JSON: /api/v1/satellites/62583 · /tle

For live sub-satellite position, see the globe view (requires WebGL).

§ Visibility from observer

Set your observer location to see the next 7 days of passes ≥ 10°. The values pass through the URL so the page stays shareable.

No JS? Fill the form by hand. The geolocation button needs JavaScript.